Weather History for Oakland, CA

Change the Weather History Date:

Monday, April 29, 2013

  Actual Average Record
Temperature  
Mean Temperature 69 °F 59 °F  
Max Temperature 82 °F 67 °F 83 °F (2014)
Min Temperature 55 °F 50 °F 41 °F (1950)
Degree Days  
Heating Degree Days 0 7  
Month to date heating degree days 110 227  
Since 1 July heating degree days 2267 2580  
Cooling Degree Days 4 0  
Month to date cooling degree days 13 0  
Year to date cooling degree days 13 1  
Growing Degree Days 18 (Base 50)    
Moisture  
Dew Point 55 °F    
Average Humidity 67    
Maximum Humidity 100    
Minimum Humidity 33    
Precipitation  
Precipitation 0.00 in 0.03 in 0.14 in (2002)
Month to date precipitation 1.33 1.31  
Year to date precipitation 2.63 12.33  
Since 1 July precipitation 13.62 19.92  
Sea Level Pressure  
Sea Level Pressure 29.86 in    
Wind  
Wind Speed 7 mph (WNW)    
Max Wind Speed 17 mph    
Max Gust Speed 20 mph    
Visibility 10 miles    
Events      
T = Trace of Precipitation, MM = Missing Value Source: NWS Daily Summary

Daily Weather History Graph

Daily Weather History Graph

Search for Another Location

Airport:

Trip Planner

Search our weather history database for the weather conditions in past years. The results will help you decide how hot, cold, wet, or windy it might be!

Date:

Astronomy

Apr. 29, 2013 Rise Set
Actual Time 6:15 AM PDT 7:57 PM PDT
Civil Twilight 5:47 AM PDT 8:25 PM PDT
Nautical Twilight 5:13 AM PDT 8:59 PM PDT
Astronomical Twilight 4:37 AM PDT 9:36 PM PDT
Moon No Moon Rise 9:43 AM PDT (4/29)
Length of Visible Light 14h 38m
Length of Day
13h 42m
Waning Gibbous, 79% of the Moon is Illuminated
Apr 29
Waning Gibbous
May 2
Last Quarter
May 9
New
May 17
First Quarter
May 24
Full

Hourly Weather History & Observations

Time (PDT) Temp. Heat Index Dew Point Humidity Pressure Visibility Wind Dir Wind Speed Gust Speed Precip Events Conditions
12:53 AM 60.1 °F - 55.9 °F 86% 29.91 in 10.0 mi WNW 5.8 mph - N/A   Clear
1:53 AM 60.1 °F - 55.9 °F 86% 29.90 in 10.0 mi NW 4.6 mph - N/A   Clear
2:53 AM 57.9 °F - 55.9 °F 93% 29.89 in 10.0 mi NNW 3.5 mph - N/A   Clear
3:53 AM 57.9 °F - 57.0 °F 97% 29.88 in 10.0 mi NW 3.5 mph - N/A   Clear
4:53 AM 57.0 °F - 55.0 °F 93% 29.88 in 10.0 mi Calm Calm - N/A   Clear
5:53 AM 55.0 °F - 54.0 °F 96% 29.88 in 10.0 mi Calm Calm - N/A   Partly Cloudy
6:53 AM 57.9 °F - 57.0 °F 97% 29.90 in 9.0 mi North 4.6 mph - N/A   Partly Cloudy
7:53 AM 64.0 °F - 59.0 °F 84% 29.92 in 10.0 mi WNW 3.5 mph - N/A   Partly Cloudy
8:53 AM 66.9 °F - 57.9 °F 73% 29.92 in 10.0 mi West 3.5 mph - N/A   Partly Cloudy
9:53 AM 71.1 °F - 55.0 °F 57% 29.92 in 10.0 mi West 3.5 mph - N/A   Partly Cloudy
10:53 AM 77.0 °F - 52.0 °F 42% 29.91 in 10.0 mi WNW 5.8 mph - N/A   Partly Cloudy
11:53 AM 80.1 °F 79.9 °F 53.1 °F 39% 29.90 in 10.0 mi NW 8.1 mph - N/A   Partly Cloudy
12:53 PM 82.0 °F - 50.0 °F 33% 29.88 in 10.0 mi West 10.4 mph - N/A   Partly Cloudy
1:53 PM 78.1 °F - 53.1 °F 42% 29.87 in 10.0 mi West 13.8 mph - N/A   Partly Cloudy
2:53 PM 77.0 °F - 52.0 °F 42% 29.85 in 10.0 mi WNW 16.1 mph - N/A   Scattered Clouds
3:53 PM 73.0 °F - 52.0 °F 48% 29.83 in 10.0 mi WNW 13.8 mph - N/A   Scattered Clouds
4:53 PM 73.0 °F - 52.0 °F 48% 29.82 in 10.0 mi West 13.8 mph - N/A   Scattered Clouds
5:53 PM 71.1 °F - 54.0 °F 55% 29.81 in 10.0 mi West 8.1 mph - N/A   Scattered Clouds
6:53 PM 69.1 °F - 54.0 °F 58% 29.80 in 10.0 mi West 10.4 mph - N/A   Scattered Clouds
7:53 PM 64.9 °F - 54.0 °F 68% 29.80 in 10.0 mi WSW 5.8 mph - N/A   Scattered Clouds
8:53 PM 64.9 °F - 57.0 °F 75% 29.80 in 10.0 mi West 4.6 mph - N/A   Scattered Clouds
9:53 PM 62.1 °F - 55.9 °F 80% 29.82 in 10.0 mi West 8.1 mph - N/A   Partly Cloudy
10:53 PM 61.0 °F - 55.9 °F 83% 29.83 in 10.0 mi WSW 5.8 mph - N/A   Partly Cloudy
11:53 PM 61.0 °F - 55.0 °F 81% 29.82 in 10.0 mi West 5.8 mph - N/A   Clear